Flag for Malaysia Weather past 2 weeks in Langkawi, Malaysia

Now
79 °F

Partly cloudy.


Feels Like: 83 °F
Forecast: 79 / 87 °F
Wind: 1 mph from Northeast

Location: Langkawi

Current Time: Oct 25, 2014 at 1:22:32 AM

Latest Report: Oct 25, 2014 at 1:00 AM


Visibility: N/A

Pressure: 29.83 "Hg

Humidity: 94%

Dew point: 77 °F

Location of LangkawiLocation

Historic Weather in Langkawi — Graph

°F

Langkawi temperature yesterday

Maximum temperature yesterday: 86 °F (at 11:00 AM)
Minimum temperature yesterday: 75 °F (at 4:00 AM)
Average temperature yesterday: 80 °F

Past Weeks' High & Low Weather Summary

 TemperatureHumidityPressure
High93 °F (Oct 16, 3:00 PM)100% (Oct 12, 7:00 AM)29.95 "Hg (Oct 12, 7:00 AM)
Low75 °F (Oct 21, 6:00 AM)59% (Oct 14, 3:00 PM)29.71 "Hg (Oct 10, 6:00 PM)
Average82 °F88%29.83 "Hg
* Reported Midnight between Oct 9 and Oct 10 — Midnight between Oct 24 and Oct 25, Langkawi, Weather by CustomWeather, © 2014

Note: Actual official high and low records may vary slightly from our data, if they occured in-between our weather recording intervals... More about our weather records

Advertising

Langkawi weather history for previous 24 hours

 ConditionsComfort  
Time TempWeatherWind HumidityBarometerVisibility
12:00 AM
Oct 25
81 °FPartly cloudy.2 mph89%29.89 "HgN/A
11:00 PM
Oct 24
79 °FPartly cloudy.3 mph94%29.89 "HgN/A
10:00 PM79 °FPartly cloudy.5 mph89%29.89 "HgN/A
9:00 PM79 °FPartly cloudy.1 mph89%29.86 "HgN/A
8:00 PM79 °FPartly cloudy.5 mph89%29.83 "HgN/A
7:00 PM82 °FBroken clouds.1 mph89%29.80 "HgN/A
6:00 PM84 °FBroken clouds.1 mph84%29.77 "HgN/A
5:00 PM84 °FBroken clouds.3 mph84%29.74 "HgN/A
4:00 PM81 °FLight rain. Broken clouds.1 mph94%29.74 "HgN/A
3:00 PM79 °FThunderstorms. Broken clouds.3 mph100%29.80 "Hg6 mi
2:00 PM84 °FThunderstorms. Broken clouds.7 mph84%29.83 "HgN/A
1:00 PM86 °FPartly sunny.7 mph84%29.83 "HgN/A
12:00 PM86 °FPartly sunny.5 mph79%29.86 "HgN/A
11:00 AM86 °FPartly sunny.3 mph79%29.89 "HgN/A
10:00 AM84 °FPartly sunny.2 mph84%29.89 "HgN/A
9:00 AM81 °FPartly sunny.3 mph89%29.86 "HgN/A
8:00 AM77 °FBroken clouds.No wind94%29.86 "HgN/A
7:00 AM75 °FPartly cloudy.3 mph94%29.83 "HgN/A
6:00 AM75 °FPartly cloudy.No wind100%29.83 "Hg5 mi
5:00 AM75 °FPassing clouds.1 mph100%29.80 "Hg5 mi
4:00 AM75 °FPartly cloudy.2 mph100%29.80 "HgN/A
3:00 AM77 °FPartly cloudy.1 mph94%29.83 "HgN/A
2:00 AM77 °FPartly cloudy.3 mph94%29.86 "HgN/A
1:00 AM77 °FPartly cloudy.No wind94%29.89 "HgN/A
Weather by CustomWeather, © 2014

See weather overviewHow to use our weather pages